Location: El Carrer d�Abaix
(41.5797°N, 2.1791°E)
Time: 13:23:52
(UTC+00:00)

ATLAS 3B R/B - Pass Details

Date: 06 June 2020
Orbit: 1024 x 1171 km, 63.8° (Epoch: 15 June)

Event Time Altitude Azimuth Distance (km) Brightness Sun altitude
Rises 21:03:49 0° 329° (NNW) 3,813 7.4 -15.0°
Reaches altitude 10° 21:06:40 10° 338° (NNW) 2,874 6.2 -15.4°
Maximum altitude 21:12:53 37° 44° (NE) 1,625 3.7 -16.1°
Enters shadow 21:18:06 15° 104° (ESE) 2,599 4.3 -16.7°
